TimeCDT,TemperatureF,Dew PointF,Humidity,Sea Level PressureIn,VisibilityMPH,Wind Direction,Wind SpeedMPH,Gust SpeedMPH,PrecipitationIn,Events,Conditions,WindDirDegrees,DateUTC
12:15 AM,53.6,51.8,94,29.67,10.0,North,9.2,16.1,0.01,Rain-Thunderstorm,Light Thunderstorms and Rain,10,2013-03-24 05:15:00
12:35 AM,53.6,51.8,94,29.66,2.0,North,9.2,-,0.18,Rain-Thunderstorm,Heavy Thunderstorms and Rain,10,2013-03-24 05:35:00
12:55 AM,53.6,51.8,94,29.66,10.0,ESE,6.9,-,0.23,Rain-Thunderstorm,Light Thunderstorms and Rain,110,2013-03-24 05:55:00
1:15 AM,53.6,51.8,94,29.65,10.0,SE,6.9,-,0.02,Rain-Thunderstorm,Light Thunderstorms and Rain,130,2013-03-24 06:15:00
1:55 AM,53.6,53.6,100,29.68,7.0,SSE,5.8,-,0.08,Rain-Thunderstorm,Rain,160,2013-03-24 06:55:00
2:15 AM,53.6,53.6,100,29.62,7.0,SE,9.2,-,0.07,Rain,Light Rain,130,2013-03-24 07:15:00
2:35 AM,53.6,51.8,94,29.59,10.0,SE,8.1,-,0.08,Rain,Light Rain,140,2013-03-24 07:35:00
2:55 AM,53.6,51.8,94,29.57,10.0,SE,6.9,-,0.08,,Mostly Cloudy,140,2013-03-24 07:55:00
3:15 AM,53.6,51.8,94,29.57,10.0,Calm,Calm,-,N/A,,Scattered Clouds,0,2013-03-24 08:15:00
3:55 AM,51.8,51.8,100,29.58,10.0,SSW,3.5,-,N/A,,Scattered Clouds,210,2013-03-24 08:55:00
4:15 AM,50.0,50.0,100,29.58,7.0,West,3.5,-,N/A,,Clear,260,2013-03-24 09:15:00
4:35 AM,51.8,51.8,100,29.59,10.0,West,3.5,-,N/A,,Clear,260,2013-03-24 09:35:00
4:55 AM,51.8,50.0,94,29.59,10.0,Calm,Calm,-,N/A,,Scattered Clouds,0,2013-03-24 09:55:00
5:15 AM,48.2,48.2,100,29.61,2.0,Calm,Calm,-,N/A,,Clear,0,2013-03-24 10:15:00
5:55 AM,50.0,48.2,94,29.62,2.5,Calm,Calm,-,N/A,,Clear,0,2013-03-24 10:55:00
6:15 AM,50.0,50.0,100,29.63,7.0,Calm,Calm,-,N/A,,Clear,0,2013-03-24 11:15:00
6:35 AM,50.0,50.0,100,29.66,10.0,WNW,3.5,-,N/A,,Mostly Cloudy,300,2013-03-24 11:35:00
6:55 AM,50.0,50.0,100,29.64,10.0,Calm,Calm,-,N/A,,Mostly Cloudy,0,2013-03-24 11:55:00
7:15 AM,50.0,50.0,100,29.64,10.0,Calm,Calm,-,0.01,,Mostly Cloudy,0,2013-03-24 12:15:00
7:35 AM,51.8,51.8,100,29.64,10.0,Calm,Calm,-,0.01,,Overcast,0,2013-03-24 12:35:00
8:15 AM,51.8,51.8,100,29.64,5.0,Calm,Calm,-,N/A,,Mostly Cloudy,0,2013-03-24 13:15:00
8:35 AM,51.8,51.8,100,29.66,7.0,West,6.9,-,N/A,,Overcast,260,2013-03-24 13:35:00
8:55 AM,53.6,51.8,94,29.66,7.0,WSW,4.6,-,N/A,,Overcast,250,2013-03-24 13:55:00
9:15 AM,53.6,53.6,100,29.66,7.0,WSW,5.8,-,N/A,,Overcast,250,2013-03-24 14:15:00
9:35 AM,53.6,53.6,100,29.66,10.0,West,4.6,-,N/A,,Overcast,260,2013-03-24 14:35:00
9:55 AM,53.6,51.8,94,29.65,10.0,WSW,4.6,-,N/A,,Overcast,250,2013-03-24 14:55:00
10:15 AM,53.6,51.8,94,29.65,10.0,WSW,6.9,-,N/A,,Overcast,250,2013-03-24 15:15:00
10:35 AM,55.4,51.8,88,29.64,10.0,SW,9.2,-,N/A,,Overcast,220,2013-03-24 15:35:00
10:55 AM,55.4,53.6,94,29.64,10.0,WSW,8.1,-,N/A,,Overcast,240,2013-03-24 15:55:00
11:15 AM,55.4,53.6,94,29.65,10.0,SW,9.2,-,N/A,,Overcast,230,2013-03-24 16:15:00
11:35 AM,55.4,53.6,94,29.65,7.0,WSW,8.1,-,N/A,,Overcast,240,2013-03-24 16:35:00
11:55 AM,53.6,51.8,94,29.65,3.0,WSW,12.7,20.7,N/A,Rain,Rain,250,2013-03-24 16:55:00
12:15 PM,53.6,51.8,94,29.67,2.5,West,10.4,20.7,N/A,,Heavy Drizzle,270,2013-03-24 17:15:00
12:35 PM,51.8,50.0,94,29.68,3.0,West,15.0,24.2,N/A,,Light Drizzle,260,2013-03-24 17:35:00
12:55 PM,50.0,46.4,87,29.69,3.0,West,15.0,25.3,N/A,,Drizzle,270,2013-03-24 17:55:00
1:15 PM,50.0,46.4,87,29.69,10.0,West,10.4,19.6,N/A,,Overcast,260,2013-03-24 18:15:00
1:55 PM,51.8,46.4,82,29.68,10.0,West,11.5,21.9,N/A,,Overcast,260,2013-03-24 18:55:00
2:15 PM,53.6,46.4,77,29.68,10.0,West,20.7,29.9,N/A,,Mostly Cloudy,260,2013-03-24 19:15:00
2:35 PM,53.6,41.0,62,29.68,10.0,West,18.4,31.1,N/A,,Scattered Clouds,270,2013-03-24 19:35:00
2:55 PM,53.6,41.0,62,29.69,10.0,West,23.0,36.8,N/A,,Mostly Cloudy,260,2013-03-24 19:55:00
3:15 PM,53.6,37.4,54,29.70,10.0,West,17.3,25.3,N/A,,Mostly Cloudy,270,2013-03-24 20:15:00
3:35 PM,51.8,35.6,54,29.71,10.0,West,16.1,26.5,N/A,,Mostly Cloudy,270,2013-03-24 20:35:00
3:55 PM,51.8,35.6,54,29.73,10.0,WNW,16.1,32.2,N/A,,Mostly Cloudy,290,2013-03-24 20:55:00
4:15 PM,48.2,35.6,62,29.75,10.0,West,12.7,25.3,N/A,,Overcast,270,2013-03-24 21:15:00
4:35 PM,46.4,33.8,62,29.76,10.0,West,16.1,29.9,N/A,,Overcast,270,2013-03-24 21:35:00
5:15 PM,44.6,32.0,61,29.79,10.0,WNW,9.2,26.5,N/A,,Overcast,290,2013-03-24 22:15:00
5:35 PM,44.6,32.0,61,29.79,10.0,West,16.1,24.2,N/A,,Overcast,270,2013-03-24 22:35:00
5:55 PM,44.6,32.0,61,29.81,10.0,West,9.2,19.6,N/A,,Overcast,280,2013-03-24 22:55:00
6:15 PM,44.6,32.0,61,29.82,10.0,West,11.5,26.5,N/A,,Overcast,280,2013-03-24 23:15:00
6:35 PM,44.6,32.0,61,29.83,10.0,West,10.4,27.6,N/A,,Overcast,280,2013-03-24 23:35:00
6:55 PM,42.8,30.2,61,29.84,10.0,WNW,12.7,27.6,N/A,,Mostly Cloudy,290,2013-03-24 23:55:00
7:15 PM,42.8,30.2,61,29.85,10.0,WNW,12.7,18.4,N/A,,Mostly Cloudy,290,2013-03-25 00:15:00
7:55 PM,42.8,32.0,66,29.87,10.0,WNW,10.4,19.6,N/A,,Overcast,290,2013-03-25 00:55:00
8:15 PM,42.8,30.2,61,29.88,10.0,West,8.1,18.4,N/A,,Overcast,280,2013-03-25 01:15:00
8:35 PM,42.8,30.2,61,29.88,10.0,West,8.1,26.5,N/A,,Overcast,280,2013-03-25 01:35:00
8:55 PM,42.8,32.0,66,29.90,10.0,WNW,11.5,18.4,N/A,,Overcast,290,2013-03-25 01:55:00
9:15 PM,42.8,30.2,61,29.90,10.0,WNW,11.5,20.7,N/A,,Overcast,290,2013-03-25 02:15:00
9:55 PM,41.0,32.0,70,29.91,10.0,WNW,9.2,21.9,N/A,,Overcast,290,2013-03-25 02:55:00
10:15 PM,41.0,32.0,70,29.92,10.0,West,9.2,19.6,N/A,,Overcast,280,2013-03-25 03:15:00
10:35 PM,41.0,32.0,70,29.93,10.0,WNW,9.2,20.7,N/A,,Overcast,290,2013-03-25 03:35:00
10:55 PM,41.0,30.2,65,29.93,10.0,WNW,12.7,25.3,N/A,,Overcast,290,2013-03-25 03:55:00
11:15 PM,41.0,24.8,53,29.94,10.0,WNW,11.5,26.5,N/A,,Overcast,300,2013-03-25 04:15:00
11:35 PM,39.2,26.6,61,29.95,10.0,WNW,9.2,24.2,N/A,,Overcast,300,2013-03-25 04:35:00
11:55 PM,39.2,26.6,61,29.96,10.0,WNW,15.0,21.9,N/A,,Mostly Cloudy,290,2013-03-25 04:55:00